Location: Unspecified
(0.0000°N, 0.0000°E)
Time: 20:35:58
(UTC+00:00)

STARLINK-34248 - Visible Passes

Search period start: 10 November 2025 00:00
Search period end: 20 November 2025 00:00
Orbit: 446 x 447 km, 53.2° (Epoch: 08 November)

Date Brightness Start Highest point End Pass type
(mag) Time Alt. Az. Time Alt. Az. Time Alt. Az.
14 Nov 5.6 19:32:55 10° NW 19:33:56 18° NW 19:33:56 18° NW visible
15 Nov 3.0 18:52:56 10° NNW 18:56:27 79° ENE 18:59:34 13° SE visible
16 Nov 3.6 18:13:02 10° NNW 18:16:21 40° NE 18:19:40 10° SE visible
17 Nov 6.6 19:11:27 10° W 19:12:59 12° SW 19:14:31 10° SSW visible
18 Nov 6.4 05:13:33 10° SSE 05:15:49 16° SE 05:18:04 10° E visible
18 Nov 6.1 18:29:39 10° WNW 18:32:25 22° SW 18:35:12 10° S visible
